1496930400.03,22610,19.69,74134.8,9.35,-1.21,-1.47,0,*75
1496930401.26,22611,19.69,74134.5,9.35,-0.81,-1.05,0,*49
1496930402.5,22612,19.69,74134.8,9.35,-1.47,-1.71,0,*72
1496930403.71,22613,19.69,74134.8,9.33,-1.59,-1.83,0,*77
1496930404.93,22614,19.69,74138.3,9.33,-1.79,-2.07,0,*7D
1496930406.17,22615,19.69,74136.5,9.33,-1.83,-2.07,0,*79
1496930407.4,22616,19.63,74134.8,9.31,-1.51,-1.87,0,*7C
1496930408.64,22617,19.69,74138.8,9.31,-2.03,-2.23,0,*74
1496930409.88,22618,19.69,74134.0,9.27,-1.63,-1.87,0,*74
1496930411.12,22619,19.69,74134.0,9.27,-1.43,-1.67,0,*79
1496930412.36,22620,19.69,74136.5,9.27,-1.13,-1.29,0,*7C
1496930413.58,22621,19.69,74134.0,9.25,-1.13,-1.29,0,*7F
1496930414.78,22622,19.69,74136.5,9.25,-0.81,-1.13,0,*4F
1496930415.99,22623,19.69,74134.8,9.27,-1.55,-1.75,0,*74
1496930417.24,22624,19.69,74138.8,9.27,-1.39,-1.67,0,*7A
1496930418.48,22625,19.69,74136.8,9.23,-2.11,-2.43,0,*73
1496930419.73,22626,19.69,74134.8,9.23,-1.35,-1.67,0,*70
1496930420.97,22627,19.69,74138.5,9.23,-1.17,-1.35,0,*76
1496930422.16,22628,19.69,74136.0,9.25,-1.55,-1.79,0,*71
1496930423.39,22629,19.69,74138.3,9.23,-1.59,-1.91,0,*7C
1496930424.64,22630,19.69,74136.0,9.23,-2.03,-2.23,0,*72
1496930425.83,22631,19.69,74134.8,9.21,-1.33,-1.55,0,*73
1496930427.06,22632,19.69,74134.8,9.21,-0.85,-1.09,0,*45
1496930428.29,22633,19.69,74136.5,9.21,-0.93,-1.09,0,*43
1496930429.5,22634,19.69,74132.5,9.21,-1.51,-1.87,0,*7D
1496930430.74,22635,19.69,74136.5,9.19,-0.97,-1.25,0,*44
1496930431.94,22636,19.69,74136.5,9.21,-0.57,-0.85,0,*7B
1496930433.15,22637,19.69,74138.5,9.21,-1.59,-1.91,0,*71
1496930434.34,22638,19.69,74134.5,9.21,-1.29,-1.59,0,*7D
1496930435.59,22639,19.69,74134.8,9.19,-1.21,-1.47,0,*70
1496930436.82,22640,19.69,74134.8,9.19,-0.97,-1.25,0,*46
1496930438.07,22641,19.69,74134.8,9.21,-1.05,-1.43,0,*76
1496930439.28,22642,19.69,74134.0,9.21,-1.09,-1.33,0,*7E
1496930440.5,22643,19.69,74138.5,9.19,-1.21,-1.51,0,*7A
1496930441.73,22644,19.69,74138.0,9.19,-1.01,-1.33,0,*7B
1496930442.94,22645,19.69,74138.5,9.21,-0.85,-1.29,0,*47
1496930444.19,22646,19.69,74132.8,9.21,-1.05,-1.43,0,*71
1496930445.39,22647,19.69,74132.5,9.21,-1.29,-1.67,0,*78
1496930446.59,22648,19.69,74134.8,9.21,-1.29,-1.71,0,*70
1496930447.83,22649,19.69,74138.8,9.19,-1.35,-1.63,0,*74
1496930449.06,22650,19.69,74134.5,9.19,-0.85,-1.21,0,*40
1496930450.33,22651,19.69,74132.0,9.19,-1.09,-1.39,0,*7D
1496930451.57,22652,19.69,74138.8,9.19,-1.21,-1.47,0,*7D
1496930452.77,22653,19.69,74134.8,9.21,-0.49,-0.93,0,*70
1496930453.96,22654,19.69,74138.5,9.21,-0.45,-0.73,0,*75
1496930455.15,22655,19.69,74134.8,9.21,-0.81,-1.17,0,*4F
1496930456.38,22656,19.69,74136.3,9.23,-0.73,-1.09,0,*4C
1496930457.61,22657,19.69,74136.8,9.23,-0.57,-0.93,0,*79
1496930458.81,22658,19.69,74134.0,9.25,-0.89,-1.29,0,*43
1496930460.08,22659,19.69,74136.8,9.23,-1.05,-1.35,0,*7C
1496930461.31,22660,19.69,74134.0,9.23,-0.93,-1.29,0,*45
1496930462.51,22661,19.69,74138.0,9.25,-1.33,-1.67,0,*73
1496930463.75,22662,19.69,74134.3,9.23,-1.35,-1.59,0,*7D
1496930464.96,22663,19.69,74136.3,9.25,-0.77,-1.05,0,*44
1496930466.17,22664,19.69,74134.8,9.25,-1.01,-1.33,0,*76
1496930467.38,22665,19.69,74138.0,9.25,-1.01,-1.33,0,*77
1496930468.59,22666,19.69,74134.8,9.27,-0.81,-1.25,0,*48
1496930469.83,22667,19.69,74134.0,9.27,-1.13,-1.51,0,*70
1496930471.1,22668,19.69,74136.3,9.27,-1.13,-1.43,0,*7C
1496930472.3,22669,19.69,74138.3,9.25,-0.89,-1.17,0,*4C
1496930473.53,22670,19.69,74138.5,9.27,-0.77,-1.13,0,*43
1496930474.76,22671,19.69,74138.0,9.31,-0.53,-0.97,0,*7E
1496930475.98,22672,19.69,74132.8,9.27,-1.29,-1.67,0,*78
1496930477.24,22673,19.69,74132.3,9.27,-1.43,-1.87,0,*7B
1496930478.47,22674,19.69,74134.8,9.27,-0.77,-1.13,0,*47
1496930479.7,22675,19.69,74132.8,9.31,-0.65,-0.97,0,*7F
1496930480.93,22676,19.69,74132.5,9.31,-0.77,-1.09,0,*49
1496930482.16,22677,19.69,74136.3,9.35,-1.05,-1.33,0,*71
1496930483.4,22678,19.69,74134.5,9.35,-0.85,-1.21,0,*44
1496930484.62,22679,19.69,74138.8,9.35,-0.93,-1.17,0,*47
1496930485.88,22680,19.69,74136.3,9.35,-0.97,-1.35,0,*45
1496930487.11,22681,19.69,74132.8,9.37,-0.89,-1.13,0,*4D
1496930488.33,22682,19.69,74132.3,9.37,-1.39,-1.67,0,*77
1496930489.54,22683,19.69,74132.3,9.37,-1.43,-1.75,0,*78
1496930490.74,22684,19.69,74136.5,9.37,-1.75,-1.95,0,*74
1496930491.97,22685,19.69,74136.0,9.37,-1.91,-2.03,0,*73
1496930493.18,22686,19.69,74136.8,9.37,-1.67,-1.87,0,*76
1496930494.39,22687,19.69,74132.3,9.39,-1.75,-1.79,0,*7B
1496930495.57,22688,19.69,74136.0,9.37,-1.63,-1.79,0,*7D
1496930496.76,22689,19.69,74134.0,9.37,-1.63,-1.67,0,*73
1496930497.97,22690,19.69,74136.3,9.39,-1.67,-1.67,0,*71
1496930499.18,22691,19.69,74132.5,9.39,-2.39,-2.31,0,*78
1496930500.43,22692,19.69,74132.8,9.39,-2.07,-1.91,0,*7F
1496930501.64,22693,19.69,74132.0,9.39,-2.43,-2.27,0,*70
1496930502.84,22694,19.69,74132.8,9.37,-2.67,-2.43,0,*7D
1496930504.05,22695,19.69,74136.5,9.37,-2.51,-2.19,0,*76
1496930505.28,22696,19.69,74134.5,9.39,-2.55,-2.27,0,*72
1496930506.5,22697,19.69,74134.8,9.37,-2.63,-2.31,0,*7F
1496930507.7,22698,19.69,74134.8,9.39,-3.19,-2.83,0,*7B
1496930508.92,22699,19.69,74134.0,9.37,-3.07,-2.51,0,*74
1496930510.1,22700,19.69,74134.0,9.37,-2.91,-2.31,0,*7D
1496930511.33,22701,19.69,74136.5,9.37,-2.55,-1.95,0,*79
1496930512.54,22702,19.69,74134.8,9.39,-2.83,-2.19,0,*78
1496930513.74,22703,19.69,74134.5,9.39,-3.03,-2.19,0,*70
1496930514.93,22704,19.69,74134.8,9.37,-2.43,-1.79,0,*79
1496930516.11,22705,19.69,74136.0,9.37,-2.43,-1.63,0,*73
1496930517.36,22706,19.69,74132.8,9.41,-2.51,-1.71,0,*71
1496930518.58,22707,19.69,74132.3,9.43,-2.63,-1.79,0,*7B
1496930519.77,22708,19.69,74134.0,9.43,-3.11,-2.31,0,*7F
1496930520.99,22709,19.69,74134.3,9.43,-3.07,-2.11,0,*7B
1496930522.18,22710,19.69,74132.3,9.43,-3.23,-2.23,0,*74
1496930523.43,22711,19.69,74134.8,9.43,-3.71,-2.75,0,*71
1496930524.68,22712,19.69,74134.8,9.43,-3.51,-2.55,0,*72
1496930525.88,22713,19.69,74134.3,9.43,-3.83,-2.87,0,*73
1496930527.12,22714,19.69,74132.0,9.43,-3.51,-2.55,0,*74
1496930528.37,22715,19.69,74132.0,9.43,-3.47,-2.47,0,*71
1496930529.62,22716,19.69,74134.3,9.43,-3.71,-2.75,0,*76
1496930530.83,22717,19.69,74132.0,9.43,-4.73,-3.87,0,*7E
1496930532.04,22718,19.69,74132.3,9.41,-4.33,-3.39,0,*72
1496930533.27,22719,19.69,74136.3,9.41,-3.79,-2.87,0,*7E
1496930534.52,22720,19.69,74132.3,9.43,-3.47,-2.47,0,*77
1496930535.79,22721,19.69,74134.3,9.41,-3.63,-2.59,0,*7D
1496930537.0,22722,19.69,74132.3,9.43,-3.43,-2.35,0,*74
1496930538.2,22723,19.69,74136.3,9.43,-3.83,-2.87,0,*70
1496930539.45,22724,19.69,74136.0,9.41,-4.01,-2.95,0,*7B
1496930540.68,22725,19.69,74136.5,9.43,-3.75,-2.75,0,*72
1496930541.88,22726,19.69,74132.0,9.43,-3.87,-2.95,0,*72
1496930543.1,22727,19.69,74134.5,9.45,-3.87,-2.99,0,*79
1496930544.33,22728,19.69,74132.3,9.45,-3.95,-2.99,0,*75
1496930545.53,22729,19.69,74132.5,9.43,-3.95,-2.95,0,*7E
1496930546.77,22730,19.69,74136.0,9.43,-3.59,-2.59,0,*76
1496930548.02,22731,19.69,74132.0,9.45,-3.75,-2.59,0,*7F
1496930549.29,22732,19.69,74134.8,9.45,-3.71,-2.59,0,*78
1496930550.5,22733,19.69,74134.3,9.47,-4.01,-2.91,0,*7F
1496930551.71,22734,19.69,74132.3,9.45,-4.13,-3.23,0,*71
1496930552.89,22735,19.69,74132.5,9.47,-4.45,-3.39,0,*7A
1496930554.1,22736,19.69,74134.3,9.45,-4.25,-3.31,0,*75
1496930555.33,22737,19.69,74132.5,9.45,-4.53,-3.51,0,*73
1496930556.51,22738,19.69,74132.5,9.47,-4.05,-2.91,0,*70
1496930557.74,22739,19.69,74134.3,9.45,-3.95,-2.95,0,*79
1496930558.96,22740,19.69,74134.5,9.45,-3.95,-2.87,0,*74
1496930560.16,22741,19.69,74132.3,9.47,-4.49,-3.43,0,*78
1496930561.35,22742,19.69,74138.3,9.47,-4.17,-3.03,0,*74
1496930562.53,22743,19.69,74134.5,9.47,-4.37,-3.39,0,*7E
1496930563.77,22744,19.69,74132.3,9.45,-4.61,-3.59,0,*7E
1496930564.98,22745,19.69,74134.8,9.45,-4.25,-3.19,0,*7B
1496930566.19,22746,19.69,74136.0,9.45,-4.13,-3.07,0,*72
1496930567.41,22747,19.69,74134.3,9.45,-4.09,-3.11,0,*7F
1496930568.6,22748,19.69,74136.0,9.47,-3.83,-2.91,0,*7E
1496930569.78,22749,19.69,74136.3,9.47,-4.37,-3.31,0,*7C
1496930571.0,22750,19.69,74136.3,9.49,-3.95,-2.95,0,*7A
1496930572.21,22751,19.69,74132.8,9.49,-4.21,-3.15,0,*7A
1496930573.42,22752,19.69,74132.0,9.49,-4.09,-3.19,0,*7F
1496930574.66,22753,19.69,74134.8,9.49,-4.33,-3.43,0,*78
1496930575.87,22754,19.69,74132.5,9.49,-3.95,-3.15,0,*77
1496930577.08,22755,19.69,74134.8,9.49,-4.05,-3.15,0,*78
1496930578.29,22756,19.69,74134.8,9.49,-4.17,-3.39,0,*76
1496930579.51,22757,19.69,74130.8,9.49,-3.83,-3.15,0,*73
1496930580.73,22758,19.69,74134.3,9.53,-3.79,-3.11,0,*76
1496930581.97,22759,19.69,74130.5,9.53,-4.01,-3.27,0,*7A
1496930583.2,22760,19.69,74132.0,9.49,-4.17,-3.47,0,*7A
1496930584.42,22761,19.69,74132.8,9.53,-3.39,-2.79,0,*77
1496930585.66,22762,19.69,74134.3,9.53,-3.91,-3.43,0,*7E
1496930586.9,22763,19.69,74132.0,9.53,-3.51,-3.03,0,*77
1496930588.13,22764,19.69,74132.5,9.53,-3.63,-3.23,0,*73
1496930589.36,22765,19.69,74134.0,9.53,-3.55,-3.15,0,*72
1496930590.58,22766,19.69,74128.0,9.55,-2.95,-2.63,0,*7A
1496930591.82,22767,19.69,74132.0,9.57,-2.83,-2.47,0,*78
1496930593.09,22768,19.69,74132.5,9.57,-2.63,-2.47,0,*79
1496930594.33,22769,19.69,74132.8,9.57,-2.71,-2.43,0,*7F
1496930595.54,22770,19.69,74134.3,9.57,-2.43,-2.35,0,*77
1496930596.72,22771,19.69,74132.8,9.59,-2.91,-3.03,0,*73
1496930597.93,22772,19.69,74134.3,9.61,-2.87,-2.91,0,*76
1496930599.14,22773,19.69,74134.5,9.61,-2.91,-3.27,0,*7C
1496930600.33,22774,19.69,74132.0,9.63,-3.03,-3.31,0,*74
1496930601.51,22775,19.69,74134.3,9.59,-2.39,-2.83,0,*7C
1496930602.72,22776,19.69,74132.8,9.61,-2.43,-3.03,0,*70
1496930603.93,22777,19.69,74130.3,9.61,-1.67,-2.27,0,*73
1496930605.11,22778,19.69,74130.8,9.63,-1.51,-2.23,0,*7F
1496930606.32,22779,19.69,74132.8,9.65,-1.59,-2.35,0,*77
1496930607.57,22780,19.69,74132.5,9.65,-1.95,-2.95,0,*7B
1496930608.81,22781,19.69,74134.3,9.69,-1.43,-2.31,0,*73
1496930610.04,22782,19.69,74134.5,9.69,-1.83,-2.91,0,*76
1496930611.25,22783,19.69,74130.5,9.71,-2.03,-3.15,0,*78
1496930612.45,22784,19.69,74134.8,9.71,-2.27,-3.55,0,*7D
1496930613.65,22785,19.69,74132.0,9.71,-2.31,-3.63,0,*7E
1496930614.9,22786,19.69,74132.5,9.73,-2.63,-3.95,0,*71
1496930616.13,22787,19.69,74134.3,9.73,-2.67,-4.17,0,*79
1496930617.34,22788,19.69,74134.5,9.73,-2.79,-4.41,0,*7A
1496930618.56,22789,19.69,74134.0,9.77,-2.99,-4.53,0,*72
1496930619.79,22790,19.69,74134.0,9.77,-2.75,-4.41,0,*7B
1496930621.04,22791,19.69,74132.5,9.77,-3.39,-5.03,0,*74
1496930622.28,22792,19.69,74128.5,9.73,-3.39,-4.93,0,*7B
1496930623.5,22793,19.69,74134.3,9.73,-3.39,-4.99,0,*70
1496930624.75,22794,19.69,74134.3,9.77,-3.91,-5.61,0,*77
1496930625.96,22795,19.69,74136.8,9.73,-4.41,-6.01,0,*7D
1496930627.17,22796,19.69,74132.0,9.71,-4.81,-6.43,0,*76
1496930628.35,22797,19.69,74130.8,9.71,-4.29,-5.97,0,*7F
1496930629.57,22798,19.69,74132.5,9.73,-4.33,-5.97,0,*79
1496930630.79,22799,19.69,74132.0,9.71,-4.21,-5.89,0,*76
1496930631.99,22800,19.69,74130.8,9.71,-4.93,-6.55,0,*72
1496930633.17,22801,19.69,74134.3,9.71,-4.99,-6.51,0,*7D
1496930634.37,22802,19.69,74132.0,9.67,-5.47,-7.11,0,*7E
1496930635.58,22803,19.69,74132.0,9.67,-5.27,-6.85,0,*75
1496930636.8,22804,19.69,74132.8,9.67,-5.65,-7.23,0,*79
1496930638.03,22805,19.69,74132.0,9.63,-5.81,-7.31,0,*75
1496930639.27,22806,19.69,74132.8,9.65,-5.73,-7.23,0,*7E
1496930640.49,22807,19.69,74132.3,9.63,-5.93,-7.49,0,*7B
1496930641.73,22808,19.69,74130.3,9.65,-5.81,-7.23,0,*7D
1496930642.98,22809,19.69,74128.5,9.65,-5.31,-6.89,0,*76
1496930644.25,22810,19.69,74132.5,9.65,-6.19,-7.57,0,*75
1496930645.45,22811,19.69,74132.5,9.63,-6.27,-7.49,0,*70
1496930646.67,22812,19.69,74130.3,9.63,-5.69,-6.81,0,*7F
1496930647.88,22813,19.69,74130.5,9.63,-5.07,-6.09,0,*76
1496930649.14,22814,19.69,74130.8,9.65,-4.93,-5.93,0,*7B
1496930650.41,22815,19.69,74134.0,9.65,-4.89,-5.81,0,*72
1496930651.62,22816,19.69,74128.0,9.67,-5.69,-6.59,0,*7A
1496930652.84,22817,19.69,74132.0,9.67,-5.81,-6.59,0,*7D
1496930654.05,22818,19.69,74134.5,9.67,-5.77,-6.69,0,*78
1496930655.26,22819,19.69,74132.0,9.67,-6.43,-7.05,0,*76
1496930656.5,22820,19.69,74132.5,9.69,-5.93,-6.47,0,*7B
1496930657.71,22821,19.69,74134.0,9.67,-5.65,-6.13,0,*7C
1496930658.95,22822,19.69,74134.8,9.67,-5.69,-6.27,0,*74
1496930660.13,22823,19.69,74134.0,9.67,-6.05,-6.39,0,*73
1496930661.37,22824,19.69,74132.5,9.69,-6.59,-6.93,0,*73
1496930662.58,22825,19.69,74132.8,9.69,-6.39,-6.59,0,*72
1496930663.79,22826,19.69,74132.0,9.67,-6.27,-6.39,0,*76
1496930665.03,22827,19.69,74128.3,9.71,-7.27,-7.27,0,*7F
1496930666.24,22828,19.69,74134.0,9.69,-6.85,-6.85,0,*79
1496930667.5,22829,19.69,74134.3,9.69,-7.05,-6.97,0,*72
1496930668.74,22830,19.69,74132.5,9.67,-6.97,-6.93,0,*7A
1496930669.98,22831,19.69,74130.8,9.69,-7.19,-6.97,0,*76
1496930671.21,22832,19.69,74130.0,9.69,-7.05,-6.85,0,*7B
1496930672.42,22833,19.69,74134.3,9.69,-6.69,-6.59,0,*70
1496930673.65,22834,19.69,74130.0,9.69,-6.27,-6.01,0,*70
1496930674.92,22835,19.69,74128.0,9.69,-5.93,-5.69,0,*70
1496930676.16,22836,19.69,74132.8,9.73,-5.65,-5.43,0,*79
1496930677.4,22837,19.69,74132.5,9.73,-5.65,-5.35,0,*79
1496930678.67,22838,19.69,74128.0,9.77,-5.15,-4.93,0,*78
1496930679.86,22839,19.69,74130.0,9.79,-4.49,-4.21,0,*76
1496930681.07,22840,19.69,74128.0,9.79,-5.23,-4.99,0,*76
1496930682.27,22841,19.69,74130.0,9.83,-4.65,-4.53,0,*77
1496930683.47,22842,19.69,74130.8,9.85,-4.45,-4.41,0,*73
1496930684.68,22843,19.69,74130.0,9.87,-4.77,-4.65,0,*77
1496930685.91,22844,19.69,74130.5,9.87,-4.69,-4.69,0,*73
1496930687.11,22845,19.69,74130.8,9.91,-4.57,-4.57,0,*75
1496930688.35,22846,19.69,74134.0,9.91,-4.89,-5.11,0,*76
1496930689.59,22847,19.69,74130.0,9.91,-5.65,-5.93,0,*7E
1496930690.86,22848,19.69,74134.8,9.93,-5.31,-5.73,0,*7C
1496930692.09,22849,19.69,74132.3,9.93,-5.65,-6.13,0,*79
1496930693.35,22850,19.69,74128.3,9.93,-5.19,-5.73,0,*7F
1496930694.58,22851,19.69,74132.3,9.93,-4.73,-5.39,0,*7D
1496930695.77,22852,19.69,74128.0,9.95,-4.53,-5.47,0,*73
1496930697.01,22853,19.69,74128.0,9.95,-4.81,-5.85,0,*73
1496930698.24,22854,19.69,74130.3,9.95,-4.13,-5.07,0,*75
1496930699.44,22855,19.69,74128.8,9.95,-4.41,-5.55,0,*74
1496930700.66,22856,19.69,74130.5,9.99,-3.79,-4.89,0,*77
1496930701.88,22857,19.69,74128.0,10.01,-3.35,-4.65,0,*45
1496930703.15,22858,19.69,74132.3,10.01,-3.43,-4.77,0,*48
1496930704.35,22859,19.69,74132.3,10.05,-2.79,-4.21,0,*46
1496930705.58,22860,19.69,74130.3,10.05,-3.51,-4.99,0,*44
1496930706.81,22861,19.69,74128.3,10.05,-3.83,-5.73,0,*4F
1496930708.0,22862,19.69,74128.0,10.05,-4.09,-6.01,0,*4F
1496930709.24,22863,19.69,74130.5,10.05,-3.79,-5.77,0,*4C
1496930710.46,22864,19.69,74130.8,10.05,-3.43,-5.47,0,*41
1496930711.69,22865,19.69,74130.8,10.07,-3.35,-5.55,0,*40
1496930712.95,22866,19.69,74132.8,10.07,-3.11,-5.31,0,*47
1496930714.14,22867,19.69,74130.0,10.09,-3.19,-5.51,0,*46
1496930715.39,22868,19.69,74128.3,10.11,-3.71,-6.05,0,*4C
1496930716.61,22869,19.69,74132.0,10.07,-2.99,-5.43,0,*4C
1496930717.83,22870,19.69,74130.5,10.09,-2.43,-4.77,0,*4B
1496930719.05,22871,19.69,74132.0,10.13,-2.07,-4.57,0,*43
1496930720.27,22872,19.69,74134.8,10.13,-1.91,-4.57,0,*4C
1496930721.48,22873,19.69,74130.5,10.13,-2.79,-5.73,0,*4F
1496930722.71,22874,19.69,74130.0,10.17,-2.67,-5.55,0,*47
1496930723.96,22875,19.69,74132.3,10.15,-2.23,-5.07,0,*43
1496930725.17,22876,19.69,74134.0,10.17,-2.79,-5.81,0,*43
1496930726.4,22877,19.69,74124.8,10.21,-1.99,-4.99,0,*42
1496930727.67,22878,19.69,74130.8,10.23,-2.07,-5.27,0,*4F
1496930728.91,22879,19.69,74128.8,10.23,-1.59,-4.85,0,*4F
1496930730.15,22880,19.69,74128.5,10.23,-1.67,-5.15,0,*4C
1496930731.34,22881,19.69,74130.3,10.25,-2.43,-6.05,0,*4C
1496930732.55,22882,19.69,74130.5,10.25,-2.83,-6.93,0,*4C
1496930733.79,22883,19.69,74128.3,10.27,-2.55,-6.69,0,*41
1496930735.03,22884,19.69,74128.3,10.27,-1.67,-5.93,0,*42
1496930736.27,22885,19.69,74130.8,10.27,-1.51,-5.81,0,*45
1496930737.52,22886,19.69,74128.3,10.31,-1.99,-6.59,0,*43
1496930738.74,22887,19.69,74128.8,10.29,-1.87,-6.39,0,*42
1496930739.99,22888,19.69,74130.0,10.31,-1.99,-6.85,0,*4C
1496930741.18,22889,19.69,74130.0,10.33,-1.55,-6.55,0,*42
1496930742.41,22890,19.69,74130.3,10.35,-1.91,-6.85,0,*49
1496930743.6,22891,19.69,74128.0,10.33,-2.19,-7.49,0,*4C
1496930744.84,22892,19.69,74130.5,10.35,-2.43,-7.65,0,*48
1496930746.02,22893,19.69,74128.8,10.33,-2.15,-7.53,0,*49
1496930747.25,22894,19.75,74132.8,10.35,-1.51,-7.05,0,*48
1496930748.52,22895,19.69,74128.3,10.35,-1.95,-7.77,0,*44
1496930749.75,22896,19.69,74130.0,10.35,-1.67,-7.39,0,*40
1496930751.02,22897,19.69,74130.8,10.35,-2.03,-7.99,0,*4A
1496930752.26,22898,19.75,74134.5,10.35,-1.79,-7.99,0,*4B
1496930753.48,22899,19.69,74130.0,10.39,-1.63,-7.99,0,*4D
1496930754.7,22900,19.69,74132.0,10.39,-1.87,-8.41,0,*4C
1496930755.89,22901,19.69,74130.8,10.39,-1.51,-8.17,0,*45
1496930757.1,22902,19.69,74128.8,10.39,-1.91,-8.63,0,*49
1496930758.34,22903,19.69,74128.3,10.41,-1.47,-8.45,0,*48
1496930759.56,22904,19.69,74128.3,10.41,-2.19,-9.27,0,*42
1496930760.8,22905,19.69,74130.5,10.45,-1.83,-8.93,0,*49
1496930762.01,22906,19.69,74134.5,10.45,-1.55,-8.71,0,*4D
1496930763.23,22907,19.69,74128.3,10.45,-1.21,-8.29,0,*42
1496930764.44,22908,19.69,74128.8,10.49,-1.51,-8.89,0,*4C
1496930765.69,22909,19.69,74128.5,10.49,-1.13,-8.37,0,*4E
1496930766.93,22910,19.69,74130.3,10.49,-0.89,-8.17,0,*76
1496930768.16,22911,19.69,74128.8,10.53,-1.09,-8.63,0,*46
1496930769.4,22912,19.69,74128.3,10.53,-1.13,-8.63,0,*4E
1496930770.61,22913,19.69,74130.3,10.53,-1.25,-8.75,0,*4D
1496930771.84,22914,19.75,74132.0,10.57,-0.85,-8.33,0,*77
1496930773.06,22915,19.69,74130.8,10.57,-1.17,-8.71,0,*4A
1496930774.25,22916,19.69,74130.8,10.59,-1.33,-8.93,0,*4D
1496930775.46,22917,19.69,74128.8,10.61,-1.51,-9.19,0,*40
1496930776.69,22918,19.69,74132.3,10.61,-0.53,-8.11,0,*75
1496930777.91,22919,19.69,74130.5,10.67,0.17,-7.27,0,*55
1496930779.12,22920,19.69,74130.5,10.73,0.87,-6.51,0,*53
1496930780.38,22921,19.69,74130.3,10.75,1.17,-6.27,0,*6D
1496930781.6,22922,19.69,74130.0,10.81,0.59,-6.93,0,*51
1496930782.85,22923,19.69,74130.0,10.83,0.47,-7.01,0,*57
1496930784.07,22924,19.69,74130.5,10.89,0.25,-7.27,0,*5A
1496930785.31,22925,19.69,74128.3,10.95,0.47,-7.15,0,*53
1496930786.53,22926,19.69,74132.0,10.97,0.13,-7.65,0,*54
1496930787.75,22927,19.69,74130.5,11.01,-0.19,-7.73,0,*7B
1496930788.96,22928,19.69,74128.0,11.01,-0.29,-7.99,0,*73
1496930790.16,22929,19.69,74128.3,11.05,-0.65,-8.37,0,*75
1496930791.39,22930,19.69,74130.5,11.11,-1.33,-9.23,0,*4E
1496930792.64,22931,19.69,74130.5,11.11,-2.55,-10.93,0,*7F
1496930793.88,22932,19.69,74130.5,11.07,-2.95,-11.11,0,*7C
1496930795.12,22933,19.75,74132.5,11.11,-3.83,-12.03,0,*7C
1496930796.36,22934,19.69,74130.0,11.07,-4.29,-12.47,0,*7B
1496930797.59,22935,19.69,74134.8,11.05,-4.17,-12.35,0,*70
1496930798.83,22936,19.69,74130.5,11.03,-4.29,-12.39,0,*74
1496930800.05,22937,19.69,74128.8,11.03,-4.99,-13.07,0,*72
1496930801.3,22938,19.69,74130.3,11.01,-4.73,-12.71,0,*7B
1496930802.57,22939,19.69,74130.5,10.99,-4.85,-12.71,0,*73
1496930803.82,22940,19.69,74128.3,10.95,-5.23,-12.97,0,*74
1496930805.09,22941,19.69,74132.8,10.95,-4.81,-12.35,0,*74
1496930806.32,22942,19.69,74132.0,10.95,-5.47,-12.97,0,*74
1496930807.57,22943,19.69,74130.3,10.91,-5.35,-12.71,0,*7C
1496930808.84,22944,19.69,74130.5,10.91,-5.61,-12.71,0,*7A
1496930810.08,22945,19.69,74128.5,10.89,-6.23,-13.29,0,*7B
1496930811.27,22946,19.69,74128.0,10.85,-6.81,-13.93,0,*7D
1496930812.49,22947,19.69,74132.3,10.81,-6.51,-13.29,0,*74
1496930813.71,22948,19.69,74132.0,10.77,-7.11,-13.83,0,*77
1496930814.94,22949,19.69,74132.0,10.77,-7.27,-13.87,0,*77
1496930816.19,22950,19.75,74132.3,10.73,-8.07,-14.51,0,*7A
1496930817.41,22951,19.69,74132.0,10.69,-7.35,-13.55,0,*7D
1496930818.62,22952,19.75,74132.0,10.63,-7.83,-13.87,0,*76
1496930819.84,22953,19.69,74130.3,10.63,-7.95,-13.65,0,*7C
1496930821.07,22954,19.69,74132.8,10.59,-7.01,-12.39,0,*77
1496930822.31,22955,19.75,74134.0,10.57,-6.69,-11.89,0,*7F
1496930823.56,22956,19.69,74132.0,10.55,-6.97,-11.97,0,*70
1496930824.81,22957,19.69,74130.5,10.51,-7.05,-11.81,0,*78
1496930826.06,22958,19.69,74132.5,10.51,-7.95,-12.53,0,*72
1496930827.33,22959,19.75,74132.5,10.49,-7.69,-12.11,0,*7F
1496930828.56,22960,19.69,74132.8,10.45,-7.11,-11.15,0,*71
1496930829.79,22961,19.69,74132.3,10.41,-7.23,-10.97,0,*7E
1496930831.03,22962,19.69,74134.5,10.37,-7.31,-10.85,0,*7C
1496930832.27,22963,19.69,74130.8,10.37,-6.39,-9.61,0,*46
1496930833.45,22964,19.69,74134.0,10.33,-6.05,-9.23,0,*4C
1496930834.68,22965,19.69,74134.8,10.33,-5.93,-8.85,0,*4C
1496930835.92,22966,19.75,74136.8,10.31,-5.93,-8.63,0,*45
1496930837.16,22967,19.69,74132.5,10.29,-5.11,-7.57,0,*4F
1496930838.39,22968,19.69,74134.0,10.29,-4.81,-7.01,0,*4B
1496930839.63,22969,19.75,74138.0,10.29,-4.89,-7.05,0,*46
1496930840.85,22970,19.69,74132.0,10.25,-5.03,-7.23,0,*45
1496930842.06,22971,19.75,74134.8,10.25,-4.81,-6.81,0,*46
1496930843.26,22972,19.75,74136.5,10.25,-4.57,-6.43,0,*40
1496930844.47,22973,19.75,74134.5,10.25,-4.09,-5.93,0,*44
1496930845.73,22974,19.75,74132.3,10.21,-4.01,-5.69,0,*4A
1496930846.98,22975,19.75,74132.8,10.21,-4.01,-5.81,0,*4D
1496930848.17,22976,19.69,74132.5,10.21,-4.37,-6.31,0,*43
1496930849.39,22977,19.69,74132.5,10.21,-3.95,-5.77,0,*4C
1496930850.62,22978,19.75,74132.8,10.15,-3.83,-5.51,0,*47
1496930851.88,22979,19.75,74132.3,10.15,-4.21,-5.89,0,*4C
1496930853.16,22980,19.75,74134.0,10.15,-3.43,-5.03,0,*4B
1496930854.34,22981,19.69,74134.8,10.13,-2.91,-4.49,0,*4D
1496930855.53,22982,19.75,74134.5,10.13,-2.43,-4.09,0,*45
1496930856.78,22983,19.75,74132.5,10.13,-3.55,-5.15,0,*4E
1496930858.02,22984,19.75,74136.3,10.13,-1.95,-3.43,0,*42
1496930859.2,22985,19.75,74134.8,10.13,-1.67,-3.15,0,*4D
1496930860.43,22986,19.69,74134.8,10.13,-1.21,-2.55,0,*49
1496930861.62,22987,19.75,74132.3,10.13,-1.63,-3.03,0,*4C
1496930862.84,22988,19.69,74132.3,10.13,-1.39,-2.79,0,*40
1496930864.06,22989,19.75,74136.3,10.15,-1.55,-2.95,0,*4F
1496930865.27,22990,19.75,74134.8,10.15,-1.75,-3.19,0,*40
1496930866.48,22991,19.75,74134.5,10.15,-1.59,-3.19,0,*4F
1496930867.7,22992,19.69,74134.5,10.21,-1.87,-3.35,0,*46
1496930868.89,22993,19.75,74132.3,10.21,-1.71,-3.11,0,*48
1496930870.13,22994,19.69,74130.5,10.17,-2.03,-3.63,0,*49
1496930871.38,22995,19.69,74134.8,10.21,-1.35,-2.71,0,*49
1496930872.6,22996,19.75,74136.3,10.17,-1.47,-2.99,0,*4C
1496930873.82,22997,19.75,74136.0,10.21,-1.21,-2.71,0,*4E
1496930875.09,22998,19.69,74132.0,10.23,-1.09,-2.63,0,*4A
1496930876.33,22999,19.75,74136.3,10.25,-1.09,-2.67,0,*49
1496930877.57,23000,19.75,74134.8,10.25,-1.09,-2.67,0,*41
1496930878.84,23001,19.75,74134.5,10.27,-0.97,-2.59,0,*79
1496930880.06,23002,19.69,74134.5,10.27,-1.29,-2.91,0,*4A
1496930881.31,23003,19.75,74134.3,10.27,-1.39,-3.07,0,*44
1496930882.52,23004,19.75,74136.5,10.27,-1.29,-2.91,0,*4C
1496930883.73,23005,19.69,74132.3,10.29,-1.63,-3.43,0,*43
1496930884.95,23006,19.69,74132.3,10.31,-1.59,-3.35,0,*41
1496930886.19,23007,19.75,74134.8,10.31,-1.09,-2.87,0,*4D
1496930887.44,23008,19.75,74138.0,10.31,-1.01,-2.95,0,*49
1496930888.68,23009,19.69,74134.8,10.35,-0.77,-2.55,0,*70
1496930889.89,23010,19.75,74136.5,10.35,-0.53,-2.31,0,*7C
1496930891.13,23011,19.75,74134.5,10.35,-0.65,-2.67,0,*7B
1496930892.37,23012,19.69,74132.5,10.37,-0.65,-2.75,0,*79
1496930893.57,23013,19.75,74136.5,10.39,-1.17,-3.19,0,*49
1496930894.76,23014,19.69,74132.0,10.39,-1.25,-3.19,0,*4F
1496930895.95,23015,19.75,74138.3,10.39,-0.65,-2.79,0,*7C
1496930897.19,23016,19.75,74134.3,10.45,-0.45,-2.55,0,*78
1496930898.45,23017,19.75,74132.8,10.45,-0.23,-2.47,0,*7A
1496930899.68,23018,19.75,74136.5,10.47,0.33,-1.95,0,*57
1496930900.92,23019,19.75,74134.5,10.53,1.09,-1.21,0,*64
1496930902.15,23020,19.75,74134.0,10.55,1.47,-0.97,0,*5E
1496930903.35,23021,19.75,74136.3,10.61,1.79,-0.61,0,*5C
1496930904.55,23022,19.75,74138.5,10.67,1.97,-0.57,0,*5C
1496930905.81,23023,19.75,74134.0,10.71,2.51,-0.27,0,*54
1496930907.03,23024,19.69,74134.0,10.79,2.89,0.05,0,*43
1496930908.24,23025,19.75,74136.5,10.81,2.47,-0.53,0,*59
1496930909.44,23026,19.75,74134.5,10.89,2.89,-0.19,0,*5E
1496930910.64,23027,19.75,74136.0,10.93,2.13,-1.33,0,*6E